Theta_e
351 351 349 347 347 347 347 347 347 345 343 342 343 346 343 340 336 332 333 335 338 342 351 347 350 358 359 359 360 360 361 363 364 362 362 361 361 358 356 356 357 358 362 365 368 369 370 370 371 371 371 370 370 368 367 367 366 366 366 366 366 365 365 364 363 361 362 361 361 362 362 363 363 363
352 349 348 349 346 347 346 346 346 346 344 341 340 341 345 344 339 337 334 334 340 340 346 350 347 353 358 360 360 360 359 363 364 361 361 361 361 358 357 357 356 356 357 359 362 365 368 368 369 371 371 371 370 369 367 366 366 366 367 366 367 367 366 364 362 361 361 361 360 361 362 363 363 363
350 348 348 347 345 346 346 346 345 345 346 344 341 341 342 344 343 340 337 332 338 345 342 346 351 351 355 359 359 361 360 362 363 361 360 360 362 362 360 357 356 355 354 355 356 361 366 368 369 370 371 370 370 369 368 367 367 367 367 367 367 367 366 363 361 360 361 361 361 361 362 362 363 362
348 347 347 346 345 346 348 344 344 344 345 346 344 341 341 342 345 344 340 337 337 344 344 345 347 351 352 356 357 358 360 362 363 362 361 360 361 361 361 357 354 354 353 353 353 354 358 364 368 370 370 370 370 369 368 368 367 367 368 367 367 366 363 362 361 362 362 362 361 361 362 362 362 362
351 348 346 347 348 347 345 343 343 344 346 346 345 342 339 340 342 343 341 338 338 341 348 346 347 350 353 352 356 356 357 358 360 361 361 361 360 360 360 361 353 351 351 351 351 350 351 355 361 365 368 368 369 369 369 368 367 367 366 366 366 362 360 361 361 362 362 362 362 361 362 362 362 361
350 351 349 348 348 348 345 345 344 345 346 346 345 343 340 338 339 342 342 339 339 337 343 346 348 350 355 351 356 356 356 357 359 358 358 360 359 359 360 359 360 352 350 350 350 349 348 350 354 358 362 366 368 368 368 367 366 364 362 362 360 357 358 358 359 361 362 363 362 362 361 362 362 362
348 348 349 349 349 349 346 346 346 347 347 346 345 344 344 340 338 340 343 341 339 339 340 346 346 347 353 352 352 357 358 359 358 357 357 358 360 361 360 359 360 353 350 349 349 348 347 347 349 351 353 357 360 362 363 361 358 356 355 355 353 353 355 355 354 357 359 361 362 361 362 362 362 361
348 347 347 348 349 348 346 345 345 346 346 346 345 344 344 342 340 338 342 345 342 341 340 343 346 348 351 353 354 357 358 357 357 357 357 357 358 360 362 360 360 357 351 349 348 347 346 345 345 346 347 349 353 352 350 351 351 350 349 349 349 350 351 351 350 351 353 355 356 356 357 358 357 354
348 348 348 348 347 346 345 346 346 347 346 346 346 344 344 343 341 340 340 343 345 342 341 342 347 349 350 353 353 356 354 353 355 355 356 356 356 357 360 361 362 355 352 349 347 346 346 345 344 343 343 343 344 344 344 345 345 345 345 344 344 344 345 345 345 345 346 346 348 349 351 351 349 348
349 348 348 348 347 345 344 344 346 347 347 347 346 345 344 343 341 338 337 339 342 343 342 342 343 346 348 348 350 353 355 352 350 349 351 351 353 355 356 357 361 363 362 358 355 346 343 342 341 342 342 341 341 341 341 341 341 341 340 340 340 341 341 341 341 341 341 341 342 343 344 346 346 347
348 348 348 348 348 346 345 345 346 347 347 348 347 347 345 344 342 341 338 339 339 341 342 342 343 346 348 349 348 350 352 351 350 349 346 347 349 351 353 353 356 359 361 357 354 355 353 350 347 340 339 341 341 341 341 341 342 341 338 335 336 338 339 339 339 339 338 338 337 336 336 339 342 345
347 347 347 347 348 348 348 348 349 349 348 347 346 347 346 345 343 341 342 341 341 340 341 341 342 345 346 347 348 349 347 344 343 346 346 344 344 347 350 352 353 356 359 358 359 355 352 350 348 344 343 342 342 342 342 342 343 342 339 337 336 336 337 337 337 337 337 336 335 333 330 329 333 339
346 346 347 347 348 350 354 354 354 354 353 347 345 346 346 345 343 342 341 342 342 343 341 340 342 344 344 347 346 344 344 344 345 346 346 345 346 347 347 349 353 356 355 357 357 357 355 352 350 349 347 348 343 343 343 345 345 343 340 338 337 336 336 335 335 335 335 335 334 333 331 328 326 329
346 346 346 348 353 354 354 356 356 356 356 356 351 347 343 345 344 343 340 339 339 343 343 341 341 342 343 346 346 345 345 347 345 344 344 343 344 343 346 347 348 354 357 354 353 355 356 353 350 348 348 351 354 350 346 346 346 342 338 337 336 336 336 334 333 333 333 331 331 331 330 329 327 325
344 345 345 345 349 352 353 353 354 354 356 355 355 354 355 353 346 343 342 340 340 341 342 344 340 343 344 346 348 346 346 345 345 345 344 344 342 342 341 340 343 350 355 353 350 351 353 355 352 349 349 349 349 351 351 344 343 342 339 336 335 335 335 335 334 333 331 329 328 329 329 327 327 324
344 344 344 345 346 347 347 347 347 350 352 352 353 354 354 354 354 354 349 344 341 340 340 339 336 336 341 346 348 347 345 344 344 345 345 343 343 342 341 339 341 344 354 350 348 349 347 353 351 348 350 350 349 349 346 341 340 340 339 338 336 335 335 335 335 333 332 331 330 328 328 327 327 325
342 343 343 343 344 345 350 352 349 348 348 351 352 352 352 353 353 345 347 353 349 344 341 340 340 338 339 338 346 351 349 348 344 344 344 344 343 343 342 343 343 343 354 350 347 346 348 351 350 347 349 349 348 345 336 335 337 337 337 337 337 335 335 334 334 333 332 331 329 328 327 326 325 323
342 342 342 342 342 343 345 346 346 346 346 346 347 348 348 347 350 352 348 349 352 353 346 342 340 343 342 339 342 348 351 348 346 344 343 344 343 342 343 346 345 344 357 351 347 342 344 349 348 347 347 348 346 341 330 330 334 334 334 334 334 334 334 334 333 332 331 329 328 326 325 324 323 320
342 343 343 342 342 343 343 344 346 345 344 345 345 346 345 346 347 348 349 349 349 350 350 348 345 345 346 344 345 342 349 351 350 348 347 347 346 345 343 344 342 344 352 352 348 343 344 347 348 348 346 346 341 336 330 330 332 331 331 331 331 332 332 332 331 331 329 328 327 324 322 321 320 320
342 342 342 342 342 342 342 347 348 349 348 346 345 345 345 346 346 347 350 345 348 352 351 350 348 346 347 347 348 348 348 347 346 353 349 348 344 343 342 341 343 345 348 354 350 343 341 341 347 344 347 346 339 337 334 328 329 329 330 329 330 330 329 329 329 329 328 327 325 323 320 319 319 320
340 341 342 342 342 342 342 344 337 339 348 344 344 343 343 344 344 344 346 343 340 341 340 340 342 340 338 337 335 336 342 346 348 345 342 343 344 342 340 341 340 342 346 351 353 347 341 342 344 342 346 345 342 337 335 331 326 327 328 328 328 328 327 326 326 326 326 325 324 321 320 319 320 321
339 340 345 348 344 342 342 341 335 334 343 342 341 341 339 338 338 339 342 344 345 337 335 335 336 337 338 338 338 337 337 337 346 344 341 344 344 342 342 340 341 341 344 348 354 347 345 342 343 342 345 348 344 338 333 330 326 324 324 326 327 326 325 325 324 324 324 324 322 321 320 319 322 328
337 337 342 344 345 343 343 334 332 332 343 339 338 338 337 337 337 338 340 339 340 343 343 343 342 342 345 347 345 346 342 342 348 347 346 346 345 343 343 343 340 339 341 347 354 348 345 344 343 344 340 340 341 339 335 332 331 331 330 328 327 325 325 324 323 322 322 322 321 321 321 321 324 331
335 337 337 341 339 331 329 327 326 328 330 338 339 340 337 337 336 340 340 342 342 342 342 343 344 344 344 344 346 346 344 346 348 347 347 347 347 346 345 345 343 341 341 344 353 348 342 346 343 346 343 337 333 334 334 332 333 332 330 329 326 325 324 321 319 319 320 320 320 319 321 324 326 330
333 335 337 338 339 329 325 323 321 320 322 330 338 339 338 339 342 344 339 342 349 343 343 344 345 344 345 344 345 343 341 343 344 346 345 348 349 348 347 345 344 343 344 343 348 351 343 345 344 343 339 333 333 333 334 334 333 332 331 329 326 325 326 324 321 321 317 317 316 316 319 322 323 327
334 335 337 337 337 329 325 322 318 317 318 321 334 338 330 331 334 343 343 341 342 343 343 343 344 344 343 343 344 344 342 343 344 345 347 347 349 350 351 349 345 343 344 345 341 352 344 341 344 342 341 338 336 337 332 333 333 333 332 330 328 327 327 325 324 322 323 323 322 320 319 316 318 318
332 334 335 338 338 327 320 315 314 315 317 324 327 323 323 326 329 341 342 342 341 340 341 342 342 343 344 343 343 344 345 344 344 345 347 348 349 350 351 352 351 349 349 347 348 352 348 342 344 344 341 342 338 336 336 333 332 333 331 330 331 330 330 327 325 325 326 327 327 317 315 316 317 318
333 334 334 335 325 319 312 312 314 316 321 325 319 318 320 324 330 337 340 340 340 341 339 339 339 341 343 344 344 343 345 347 347 346 346 347 348 349 350 351 352 352 348 348 348 350 349 345 343 345 345 343 339 335 334 337 334 331 330 331 332 331 331 331 329 328 329 329 325 324 324 324 324 326
330 327 321 319 317 317 315 314 315 318 322 317 317 318 320 332 333 333 336 338 337 336 337 339 341 342 343 345 345 346 345 346 347 348 349 349 349 349 349 350 350 350 351 348 348 349 349 347 344 345 345 344 341 339 338 335 333 331 331 329 328 330 331 331 330 329 328 327 325 325 327 327 326 329
327 323 320 318 317 319 321 327 329 330 331 329 325 324 329 328 330 332 333 335 335 335 336 337 338 341 343 345 346 346 345 343 343 344 345 346 346 348 347 346 346 349 350 349 348 348 348 348 345 345 343 340 340 337 337 335 333 333 331 331 330 332 332 331 330 330 328 326 326 328 331 332 331 331
330 330 331 330 326 326 328 330 334 335 336 336 337 336 333 329 329 332 333 335 336 336 336 336 338 341 343 344 343 341 340 341 344 344 343 344 345 345 345 344 344 344 346 348 348 347 347 346 344 344 341 338 338 338 338 338 334 332 332 333 331 328 330 331 330 329 328 328 330 328 326 325 326 327
331 332 332 330 331 332 332 332 332 332 333 335 336 337 335 332 332 334 338 340 337 337 338 338 339 340 341 340 341 342 342 343 344 344 343 343 343 343 343 340 340 343 343 343 344 345 347 344 343 343 342 340 337 337 338 338 335 333 332 333 334 334 332 330 329 329 330 328 323 321 321 321 320 320
329 329 327 327 328 329 329 329 329 330 332 334 335 336 337 335 332 332 333 334 335 336 336 336 337 338 340 340 341 341 341 342 343 345 344 344 343 342 342 339 340 339 339 340 341 342 343 345 345 344 342 341 340 338 336 335 335 335 333 333 334 332 332 332 330 328 326 322 318 317 315 316 316 316
324 324 324 325 326 327 328 328 329 330 332 333 334 336 335 337 337 336 335 336 337 338 337 337 338 339 340 340 340 340 340 341 342 342 339 343 343 341 338 337 338 340 339 339 340 340 335 330 330 331 329 325 323 327 332 337 334 335 335 335 334 332 333 331 328 326 324 320 317 314 313 313 314 315
322 324 324 326 327 327 329 329 329 330 330 331 334 336 336 337 337 337 338 338 337 338 339 338 340 340 340 339 340 339 339 340 341 342 341 343 342 342 340 338 339 339 338 338 339 334 331 329 328 327 328 328 328 326 318 322 337 334 334 334 335 332 329 328 326 323 322 320 318 314 312 312 312 314
321 323 324 324 324 326 327 328 331 331 331 331 332 333 334 335 337 337 337 338 339 338 338 338 338 339 339 340 339 339 339 338 339 341 340 340 341 341 341 340 339 339 339 338 337 332 331 329 330 328 326 326 326 324 326 318 320 334 333 332 334 330 326 325 324 322 320 318 318 316 312 310 311 312
319 322 322 323 324 326 326 328 329 330 331 331 331 332 333 333 334 336 337 335 338 338 339 339 338 339 339 339 339 338 338 338 338 339 339 340 340 340 338 338 338 339 338 338 335 331 332 331 331 330 328 326 325 324 320 325 320 319 333 332 329 327 324 322 321 320 321 319 317 315 313 311 309 310
318 319 320 322 324 326 328 328 330 331 331 332 332 332 333 333 334 335 335 334 334 336 337 337 336 334 335 336 337 338 339 339 339 338 338 339 338 338 337 336 336 334 335 335 332 331 332 332 332 332 330 327 324 320 318 321 324 322 316 332 327 326 325 323 320 317 315 316 314 314 313 310 309 310
315 318 321 323 326 327 328 329 331 331 332 332 333 332 331 331 331 331 332 333 333 333 333 333 333 334 333 335 336 337 337 337 337 337 338 338 338 338 336 335 333 334 333 330 330 330 331 331 332 332 332 329 324 323 323 321 316 321 321 324 328 326 325 321 316 314 312 309 309 309 309 310 311 311
315 318 321 324 325 327 327 329 330 331 332 332 331 331 331 331 330 331 332 333 332 332 332 332 334 332 334 335 335 336 336 336 336 337 338 338 338 339 338 337 335 333 331 329 328 329 329 330 330 330 329 326 325 324 322 321 321 324 323 320 321 326 322 319 315 312 310 309 308 307 305 305 303 306
319 319 322 324 326 327 327 329 330 332 331 331 331 334 333 332 332 331 331 332 335 334 333 333 333 333 333 334 335 336 335 335 336 337 337 337 337 336 336 334 334 332 330 328 328 328 328 328 329 325 326 324 326 328 327 322 318 317 316 317 314 316 318 318 316 313 310 310 308 305 303 301 301 302
328 327 328 328 328 328 329 329 330 331 332 333 332 332 332 333 333 335 335 338 335 334 334 334 335 335 335 335 336 336 335 335 335 335 336 337 337 335 334 334 332 331 329 327 327 325 326 328 328 327 327 328 328 323 318 316 314 314 315 316 315 313 313 312 312 312 313 309 306 304 303 302 302 301
327 327 328 328 329 330 331 332 332 332 332 333 332 331 331 332 332 334 331 332 332 332 332 332 333 333 335 337 338 338 336 336 336 336 335 335 335 334 332 332 331 330 328 325 323 324 324 326 327 328 327 325 323 322 317 317 317 316 315 314 313 313 313 313 312 312 312 313 312 309 307 304 301 298
325 325 326 327 328 330 331 332 332 333 332 332 332 332 332 331 331 331 332 332 331 331 332 331 331 332 333 334 334 334 333 332 332 331 331 331 331 330 329 328 327 325 324 323 323 324 325 326 325 325 322 320 320 318 317 317 316 316 315 314 315 314 314 316 318 315 314 312 312 313 310 310 310 307
325 325 326 328 330 331 332 332 333 332 333 334 333 332 331 330 330 332 332 332 331 331 332 332 330 329 329 329 329 329 330 332 331 330 329 328 328 328 328 327 325 324 323 324 323 324 324 322 322 322 320 320 320 319 319 318 316 316 315 315 314 315 316 317 315 315 314 314 311 313 313 313 310 309
Wind_Speed
8 6 5 5 5 5 4 5 5 5 4 5 5 6 8 7 8 5 5 5 6 4 7 5 5 9 8 9 8 8 9 10 11 9 9 9 9 12 15 17 17 18 19 20 20 21 21 21 21 21 21 21 21 22 21 20 20 21 21 20 20 21 22 21 17 16 15 15 16 16 16 17 17 17
5 3 3 4 5 5 4 5 5 4 3 5 5 5 7 7 9 7 7 7 5 4 3 6 5 5 8 8 7 8 9 12 12 9 9 9 9 13 15 16 16 17 18 18 19 19 19 19 20 19 19 20 21 21 21 21 20 19 20 20 21 22 21 19 17 16 15 15 15 16 16 16 16 15
5 5 6 6 6 5 5 5 6 6 5 5 5 6 6 7 8 8 6 5 4 5 6 6 7 6 8 7 7 7 7 9 11 9 9 9 12 14 12 15 16 16 17 17 17 17 18 18 17 18 18 18 19 19 19 20 19 19 20 20 21 21 20 17 16 15 15 15 15 16 16 16 16 15
5 6 7 7 7 6 6 7 6 6 6 6 6 7 6 7 8 8 7 8 9 5 7 7 7 8 7 7 7 8 6 7 12 9 9 9 11 9 8 13 16 16 16 16 16 16 17 17 17 17 17 17 17 18 18 19 19 21 21 20 21 20 17 15 14 13 14 15 16 16 16 16 15 15
5 6 8 9 8 5 7 7 6 7 8 7 6 5 5 7 6 6 7 8 8 5 4 5 6 7 6 5 7 8 7 6 7 9 8 7 7 7 8 8 13 16 16 16 16 16 16 17 17 18 18 18 17 16 16 17 18 19 19 19 18 17 15 14 14 14 14 14 15 15 15 15 15 14
6 6 7 8 8 6 8 8 8 8 8 8 7 6 4 6 6 6 6 8 8 10 4 4 5 3 6 6 5 8 8 8 6 7 8 7 7 7 7 7 7 13 15 15 15 15 15 16 17 17 17 16 16 16 16 17 17 17 17 16 16 15 14 13 14 15 15 15 15 15 15 15 15 14
6 7 8 8 6 5 7 8 8 8 8 6 7 7 5 6 6 6 7 6 7 9 7 6 6 6 5 7 7 8 8 8 7 7 8 8 6 6 7 7 6 10 13 15 15 15 15 15 16 16 16 15 15 16 16 16 16 16 15 15 15 15 15 15 15 15 15 15 15 15 15 15 14 13
7 8 8 8 6 5 6 7 6 7 7 7 7 8 7 6 7 5 5 7 7 7 8 5 7 6 7 6 5 6 7 6 6 7 6 5 6 6 6 7 7 8 12 13 14 14 15 16 15 15 14 14 15 15 14 14 14 14 15 15 15 15 15 15 15 15 15 15 15 15 15 14 13 12
8 8 8 8 6 6 8 8 8 8 9 8 8 8 8 7 6 5 4 6 7 6 8 6 6 6 6 6 5 5 6 4 4 3 5 6 7 6 5 4 6 8 11 13 14 14 15 15 14 14 13 14 14 14 14 14 13 13 12 12 12 13 14 14 14 14 14 14 14 14 14 13 12 11
7 7 7 7 7 7 8 8 8 8 9 8 8 9 8 7 5 5 5 4 6 7 8 7 6 4 6 3 4 6 7 7 5 4 3 2 3 3 5 5 4 3 3 4 5 8 10 11 13 13 13 13 13 13 13 13 12 12 12 12 12 13 13 14 14 14 15 14 14 14 13 12 11 9
7 7 6 7 7 8 9 9 9 9 9 8 9 9 9 7 6 6 5 4 5 6 8 7 7 6 6 6 7 4 5 5 5 7 5 5 4 4 5 6 4 3 4 5 9 9 8 10 9 11 12 12 12 12 12 12 12 12 12 13 13 14 14 15 15 14 14 14 13 12 11 11 11 8
7 7 6 6 7 9 9 9 9 9 9 8 9 8 7 7 7 7 6 4 4 6 6 7 7 6 7 3 1 3 4 3 1 3 6 9 7 7 6 6 6 3 3 4 5 6 6 6 6 7 8 11 12 13 11 11 11 12 13 13 14 14 14 14 14 14 14 13 12 11 10 10 11 10
7 7 6 6 7 10 15 17 15 14 12 8 9 9 6 7 7 7 5 5 5 4 6 7 6 6 6 6 6 5 6 8 11 7 6 6 5 4 4 6 4 4 4 4 5 5 5 5 5 4 4 5 7 8 9 7 11 13 13 13 14 14 14 14 13 13 13 12 11 11 9 9 10 10
8 8 7 8 15 17 18 19 18 19 20 19 14 9 9 8 7 7 7 7 6 6 6 7 7 8 8 8 8 9 8 7 3 5 6 7 5 2 4 4 4 4 5 5 6 6 3 5 4 4 5 4 5 4 5 6 7 8 12 13 13 13 13 12 12 12 12 11 9 8 9 9 9 8
8 8 7 6 10 13 15 14 19 17 17 18 19 22 22 17 10 8 9 8 7 7 7 5 4 5 8 10 9 10 8 6 9 8 8 8 5 6 5 7 3 3 7 6 5 6 3 5 6 5 6 5 4 4 5 7 9 10 9 10 11 11 11 11 11 11 11 9 8 8 8 8 9 7
7 8 8 6 6 7 9 9 9 13 17 17 18 19 19 20 24 22 13 9 8 7 7 6 6 7 10 8 7 6 5 7 6 6 7 7 8 7 7 5 6 4 7 7 5 8 2 4 5 5 6 5 4 4 4 5 6 7 7 8 9 10 11 10 10 10 10 8 7 7 8 8 5 4
8 7 7 7 6 6 14 12 9 8 9 14 16 17 18 20 21 19 20 21 14 9 10 10 9 10 10 7 7 8 9 7 9 7 7 7 7 7 8 8 6 5 5 5 5 6 4 5 5 6 6 4 4 3 2 4 3 3 5 7 9 10 9 8 8 9 9 7 8 8 6 5 5 5
8 8 8 7 8 7 8 8 9 8 8 9 9 9 10 11 14 19 19 19 23 19 11 10 11 10 9 10 13 9 4 9 9 8 9 7 7 7 10 10 6 0 4 7 4 3 4 4 4 7 4 4 3 2 2 4 3 3 2 4 6 5 7 8 9 9 8 8 8 7 6 6 6 7
8 8 8 8 9 9 8 7 9 8 9 9 9 10 10 10 10 10 10 12 12 13 13 13 12 11 10 13 13 8 7 7 6 8 8 9 8 4 1 3 2 4 5 4 5 7 4 3 5 6 4 3 3 3 3 4 3 3 3 3 5 7 8 8 9 9 8 8 7 9 7 6 6 7
8 8 8 8 9 9 9 11 15 14 10 9 10 12 11 10 9 9 12 14 14 13 12 12 11 10 11 11 11 7 7 5 3 5 2 3 2 4 4 6 3 6 5 7 7 4 4 3 5 3 3 4 4 2 2 2 2 3 4 4 6 7 7 8 10 9 8 7 7 9 9 9 9 10
7 7 7 7 8 8 9 13 12 13 16 10 10 9 9 9 9 10 9 12 13 15 18 18 16 12 8 9 9 5 1 2 5 3 3 6 5 5 7 8 6 8 5 6 8 5 4 3 5 3 3 5 4 3 3 2 1 3 4 5 5 6 7 8 9 8 8 8 10 11 12 12 12 14
7 9 15 13 9 9 10 12 11 12 12 10 10 9 9 8 8 9 6 5 8 14 14 13 11 12 14 13 12 10 12 15 9 6 9 8 6 8 8 9 8 4 4 6 7 5 6 4 4 3 2 4 3 5 3 3 2 3 3 4 5 6 6 8 9 8 9 10 11 13 14 14 12 8
7 8 10 15 14 11 11 13 12 13 13 9 10 10 9 10 12 12 9 9 10 9 10 11 10 11 13 12 9 9 16 17 14 10 11 8 8 10 9 9 5 4 5 6 10 8 5 6 4 5 3 4 2 3 4 4 3 3 3 4 5 6 8 10 12 11 11 11 12 13 14 13 11 7
7 7 7 9 11 12 13 14 14 14 15 11 8 8 8 11 15 9 7 9 9 9 9 9 10 12 11 9 9 7 10 13 12 12 11 10 9 9 9 9 9 9 5 5 12 9 3 6 5 6 6 4 3 2 3 4 4 3 4 5 5 6 7 10 7 11 13 12 13 13 14 12 9 7
7 8 7 6 8 11 12 13 14 14 15 14 10 10 10 11 11 7 7 11 17 10 10 9 8 8 7 7 8 9 11 11 9 10 11 11 10 11 11 10 9 9 7 5 14 8 6 7 7 6 4 2 3 4 3 3 4 4 4 5 7 5 5 5 5 7 9 12 13 13 12 10 9 7
7 8 7 6 8 10 11 12 13 14 13 16 8 10 14 14 13 9 8 8 6 8 8 8 7 7 7 7 8 9 11 12 12 12 12 12 13 12 11 11 11 9 10 7 15 10 7 5 8 8 5 5 2 5 5 3 3 5 5 3 4 7 7 7 6 8 8 7 7 7 7 8 7 6
8 7 7 7 13 11 11 10 11 12 13 10 9 14 14 14 15 14 9 6 7 7 8 9 8 8 8 8 8 9 10 11 11 11 11 12 12 11 11 11 10 11 8 8 12 10 9 6 8 10 9 8 6 5 6 6 4 6 5 6 5 5 5 5 7 7 7 7 6 11 9 9 10 9
7 7 7 8 11 11 13 14 13 12 10 8 12 13 15 15 14 10 8 8 8 8 8 9 9 9 8 8 8 9 9 9 10 11 11 11 11 11 11 12 13 10 6 7 9 10 9 8 7 10 10 10 9 9 7 3 5 9 8 6 6 6 6 6 7 7 6 5 5 5 6 6 4 7
7 9 13 13 13 14 14 15 14 12 13 15 13 15 15 14 7 6 8 9 7 9 9 9 8 9 9 9 9 7 7 7 6 7 8 9 9 10 11 11 10 9 8 6 8 9 10 10 9 9 8 8 10 8 8 8 9 9 8 9 6 7 6 5 7 7 6 6 6 4 5 6 5 2
11 14 14 14 15 14 13 10 7 7 8 10 13 14 16 7 4 6 9 9 8 9 9 8 8 8 8 9 8 8 7 7 8 8 7 7 8 9 9 9 9 9 9 7 7 8 8 8 7 6 6 4 5 7 6 6 7 8 9 9 6 6 5 7 7 7 8 7 6 5 5 5 5 3
8 9 9 8 9 9 13 14 14 13 12 9 8 7 6 5 7 8 8 8 9 9 8 8 8 8 7 5 5 5 6 8 9 8 8 8 9 8 7 8 8 7 6 6 7 6 7 6 5 6 7 6 8 9 11 8 8 8 8 8 12 11 9 9 8 8 8 7 6 7 6 7 7 7
6 7 9 10 9 9 9 8 7 7 7 7 6 6 6 7 9 9 13 13 9 9 9 9 7 6 5 6 7 7 8 9 8 7 8 9 8 7 7 6 9 7 6 6 5 6 8 9 7 6 8 10 10 8 6 7 9 10 10 9 6 5 9 10 10 8 8 9 9 8 7 7 7 6
6 7 7 7 8 8 8 7 6 6 7 6 6 6 6 6 7 7 8 8 8 8 7 8 8 8 7 8 8 7 8 8 8 7 8 9 8 7 8 9 8 7 8 6 7 7 8 9 10 10 9 7 5 7 10 9 9 10 11 10 8 9 9 9 10 11 11 10 8 7 8 7 6 5
7 7 6 7 9 9 7 8 8 7 6 6 5 6 6 7 6 6 6 7 7 7 8 9 8 8 7 8 8 8 9 7 7 8 9 7 7 7 8 9 8 7 7 6 6 7 4 2 4 2 3 6 5 2 3 7 8 9 9 10 12 11 10 10 10 10 10 11 11 9 8 8 6 5
7 7 7 8 7 7 7 8 9 7 6 6 5 5 6 6 7 7 7 7 7 8 8 9 9 8 8 8 8 8 8 8 7 7 8 9 8 9 8 9 9 8 8 7 7 6 7 6 6 5 3 5 4 3 8 5 8 8 7 8 5 8 12 12 11 10 10 8 10 12 8 7 6 5
7 7 6 6 7 7 7 8 7 6 6 6 6 6 5 5 5 6 7 7 8 9 9 8 8 8 8 9 8 8 7 7 7 7 7 7 8 8 8 8 8 8 8 8 7 7 8 8 9 9 7 5 5 5 2 7 7 5 14 12 10 12 12 11 11 11 10 8 9 11 10 8 5 3
6 6 6 8 9 8 9 8 7 7 7 7 7 6 6 6 5 5 6 7 8 9 10 9 8 9 8 8 8 8 7 7 8 8 8 8 8 8 8 8 9 8 9 8 8 9 9 9 9 10 10 9 9 8 4 3 9 11 3 11 12 11 12 11 12 10 8 9 7 8 9 9 7 5
7 7 8 9 10 9 8 8 7 7 6 6 7 7 7 6 6 7 4 3 4 6 9 8 5 3 5 7 7 7 7 7 7 7 8 8 9 9 8 7 6 6 7 6 8 9 10 10 10 10 12 11 9 9 6 2 1 6 7 12 13 11 11 12 12 11 9 8 10 7 7 9 7 5
8 8 9 9 8 7 6 6 6 6 6 6 6 6 5 4 3 1 4 7 7 7 6 4 6 7 8 8 8 7 7 7 7 7 7 8 8 9 8 7 6 6 6 6 6 7 8 9 10 10 11 12 15 13 12 11 7 4 8 12 14 12 10 12 12 11 11 10 9 9 9 8 10 13
9 9 9 9 9 7 7 7 7 7 7 6 5 5 5 5 5 6 5 4 4 4 4 6 8 7 7 7 6 6 7 9 9 8 8 8 9 9 8 7 8 7 6 8 8 7 7 7 7 7 5 4 6 10 11 9 8 8 9 9 8 16 15 13 13 14 11 10 11 13 11 8 8 3
8 9 8 8 9 8 7 7 7 6 6 5 6 6 5 5 7 7 5 5 5 5 6 7 7 7 8 8 8 8 9 9 9 9 9 9 10 10 10 9 7 7 8 9 9 8 7 5 9 15 14 12 11 11 12 12 10 7 10 10 17 17 12 12 14 15 13 11 11 13 11 8 9 6
7 7 6 6 6 6 6 7 6 5 5 5 5 5 5 5 7 8 6 6 5 5 5 5 5 6 8 9 9 9 10 10 9 10 9 9 8 9 10 9 7 9 10 8 7 8 8 9 15 15 12 10 9 13 12 12 10 9 9 10 11 15 20 21 20 15 10 14 17 14 9 8 8 7
7 7 6 6 6 6 5 5 5 5 4 3 3 5 5 5 5 6 4 4 4 3 1 2 3 4 5 7 8 8 9 9 9 9 9 9 8 8 8 7 7 8 9 10 9 10 10 10 9 9 8 10 10 13 13 11 10 11 11 11 10 10 13 17 18 19 15 11 9 5 12 13 10 8
7 6 7 6 6 6 5 6 5 2 3 4 5 5 5 4 5 4 5 5 3 2 2 2 4 3 2 2 3 5 5 5 5 6 6 6 6 6 8 9 10 11 12 13 12 10 7 7 6 8 11 10 10 13 12 12 11 10 10 9 9 12 12 9 9 11 11 12 7 8 9 7 3 12
6 7 7 6 6 6 6 4 4 5 6 5 4 4 4 4 5 5 3 2 3 4 4 4 3 3 2 2 4 5 4 6 6 6 7 8 9 11 12 14 13 13 12 12 14 12 10 9 8 10 10 8 9 11 10 11 12 11 10 12 12 11 9 9 9 7 5 4 9 6 8 6 16 17
Wind_Direction
234 231 232 238 248 255 267 276 275 264 259 245 229 203 211 207 227 234 234 238 231 255 203 222 234 208 211 214 212 210 216 217 211 217 217 221 225 228 225 227 228 229 230 230 230 231 232 232 229 229 230 232 234 236 236 237 242 244 245 245 245 245 246 249 250 247 245 244 243 244 245 247 250 252
213 220 228 229 244 242 244 265 272 273 270 267 256 237 228 209 218 215 220 248 211 240 241 207 238 208 212 211 212 209 215 221 212 216 216 218 222 223 222 224 227 228 229 229 229 230 232 232 232 231 229 230 233 235 238 238 238 240 242 243 244 247 247 249 249 247 244 243 241 243 244 243 244 246
207 213 226 233 247 255 266 271 272 272 270 269 272 261 242 221 217 215 200 241 265 202 222 230 226 211 212 206 209 212 217 219 212 216 218 219 221 220 222 222 224 227 228 230 230 232 232 232 231 230 230 230 230 231 233 236 236 237 240 242 245 247 249 249 249 245 243 242 240 239 239 240 241 242
211 219 230 234 236 241 237 244 253 261 263 257 255 255 252 236 220 205 200 216 247 218 209 218 224 215 213 199 201 215 221 220 208 216 218 221 221 221 226 224 224 226 227 228 229 231 232 233 232 230 228 228 228 231 234 236 236 237 239 241 244 248 250 250 247 244 243 242 240 239 238 238 239 239
227 219 229 238 234 212 224 239 247 253 258 259 252 245 245 244 234 212 204 214 243 261 229 220 225 220 192 197 205 210 216 219 215 214 219 215 214 216 219 223 222 223 224 226 227 229 231 232 234 234 234 233 231 230 231 233 235 237 240 242 244 247 250 250 248 245 244 241 239 238 238 238 239 240
249 241 237 239 238 212 224 235 237 234 244 251 260 258 237 240 245 230 215 222 224 241 237 233 250 232 186 209 193 202 209 222 212 209 216 218 215 219 218 222 229 221 224 226 228 230 231 233 235 236 237 236 234 232 232 233 233 236 239 242 246 249 251 250 247 245 244 243 241 240 240 241 241 241
250 249 245 248 239 226 228 234 244 248 247 249 254 260 256 255 248 242 231 224 229 233 238 218 214 209 196 202 203 207 211 214 199 205 212 213 214 218 217 218 225 221 220 225 228 229 231 233 234 236 237 238 237 235 235 234 234 236 237 239 241 243 244 245 245 244 246 246 243 243 243 242 242 245
249 249 253 250 241 236 245 247 249 253 257 256 256 257 258 256 260 248 229 230 231 219 231 228 209 208 190 219 218 205 204 199 199 207 215 210 211 213 212 214 220 221 218 223 226 229 231 232 234 235 236 237 239 240 242 239 236 234 234 235 236 238 240 242 243 245 246 248 249 248 248 248 249 252
248 248 249 255 247 239 246 250 250 250 252 253 255 255 255 254 254 258 234 232 231 236 231 239 227 205 204 201 197 185 182 209 211 210 212 209 215 218 216 214 222 226 222 220 223 226 229 232 233 234 234 235 236 235 237 240 241 241 241 241 241 242 243 244 246 248 247 248 249 251 253 252 249 244
246 250 251 253 249 242 240 246 251 250 249 249 250 253 255 252 253 260 266 251 246 238 240 239 247 215 193 184 202 188 187 181 196 217 236 281 252 224 238 235 227 217 206 216 232 237 241 240 236 234 234 234 235 235 234 235 236 237 237 236 238 240 243 244 244 245 246 246 248 248 250 252 249 246
254 250 249 253 251 244 239 240 242 249 249 243 244 248 254 255 251 252 255 260 257 245 244 245 236 221 222 191 200 219 187 187 181 192 199 244 240 233 225 246 244 216 220 218 218 222 217 219 222 228 231 234 233 234 233 232 231 233 232 233 234 237 238 240 241 243 244 246 247 248 248 250 251 237
252 250 244 242 247 248 249 247 249 246 249 250 249 247 248 251 253 253 255 267 246 249 244 236 233 220 202 230 33 83 115 144 250 214 191 213 224 229 227 229 235 235 209 233 233 240 235 236 223 223 221 225 228 228 229 229 229 230 231 231 232 234 236 238 240 241 243 244 246 247 247 249 254 242
250 252 248 246 248 255 258 254 253 250 246 244 254 254 248 248 248 252 244 240 257 250 247 248 236 219 213 202 169 157 176 191 202 191 185 220 225 219 239 255 235 220 217 232 234 233 204 207 208 199 216 228 219 229 221 228 228 231 232 233 234 234 234 236 238 242 244 244 245 248 246 243 244 245
253 252 246 248 253 258 260 261 258 256 253 246 240 238 240 248 240 234 226 230 236 252 245 242 232 221 216 202 193 186 200 194 131 128 175 214 218 158 242 283 250 208 204 219 236 242 200 193 207 186 224 230 201 201 193 218 216 223 227 232 233 234 235 234 236 239 240 238 239 242 241 239 237 233
253 255 247 239 255 263 270 271 268 266 263 260 250 247 244 237 234 238 236 223 206 225 249 252 238 268 237 213 198 198 187 174 180 183 180 200 177 196 206 236 285 211 181 203 226 250 204 176 208 217 223 217 197 202 210 208 214 225 228 234 237 236 232 229 230 233 233 229 223 229 235 228 226 222
248 254 257 249 240 250 254 258 262 263 262 259 255 251 248 247 244 239 229 224 222 203 214 233 203 220 255 241 200 197 162 185 189 190 176 182 187 199 210 221 226 240 182 187 204 247 202 177 206 226 229 204 198 202 206 202 214 226 237 240 237 235 230 224 219 221 224 220 200 199 210 216 209 182
246 249 255 256 243 243 253 261 262 259 260 260 255 254 254 251 247 243 241 237 229 222 218 217 215 212 227 264 262 202 194 173 187 180 189 191 193 198 208 223 230 250 187 166 200 243 225 172 199 224 232 181 178 155 125 158 183 225 248 245 237 232 227 211 202 209 213 194 175 187 195 183 171 153
243 243 246 253 257 248 248 251 258 260 259 259 257 253 249 249 252 250 240 235 232 228 224 220 221 214 184 203 239 247 183 165 186 181 203 196 194 194 214 221 220 124 166 177 170 252 245 192 185 227 219 153 136 124 130 146 141 164 224 245 235 212 196 197 191 196 194 176 173 159 173 160 153 144
244 245 243 244 250 257 253 246 244 250 255 257 256 249 241 242 244 240 237 227 223 224 223 223 224 223 200 206 221 205 240 198 188 184 195 195 199 209 336 0 196 196 205 172 148 225 235 161 189 226 175 141 114 145 101 90 124 139 159 165 153 169 189 164 171 187 181 171 166 142 153 150 131 112
245 246 246 247 250 253 256 255 253 255 257 254 248 246 245 243 240 240 237 231 223 219 218 220 218 217 209 207 222 205 187 188 158 178 91 84 155 202 219 241 230 227 204 185 177 214 246 189 191 216 167 143 139 132 124 75 112 153 155 158 153 167 172 158 167 177 175 160 142 122 127 126 120 117
253 254 252 249 251 254 255 257 247 249 260 261 261 254 248 242 238 241 240 239 235 226 219 217 213 202 208 219 227 195 179 222 213 118 126 208 183 184 221 237 230 240 185 195 195 187 234 195 169 166 173 158 150 166 151 134 83 157 164 160 164 169 168 154 159 167 153 142 129 122 124 124 121 116
254 252 255 254 250 252 254 258 252 247 253 254 256 263 252 246 245 247 238 235 237 233 231 228 218 207 213 209 210 188 188 213 207 164 212 217 186 214 209 229 221 231 186 203 174 166 220 159 154 140 161 162 163 155 143 149 133 119 114 130 133 136 139 134 130 139 142 137 131 125 123 122 120 116
257 262 263 263 261 260 259 260 248 244 250 245 240 245 240 246 243 242 232 227 232 230 226 230 228 231 230 227 218 216 213 216 212 205 218 211 202 215 218 225 220 239 243 193 166 194 207 164 191 147 138 213 155 156 158 161 160 151 139 118 113 129 141 137 139 145 139 133 131 131 130 132 127 122
266 259 260 263 262 259 261 261 256 247 241 243 235 243 239 241 246 242 232 230 223 229 230 224 210 216 210 206 204 177 197 222 216 215 216 216 209 214 222 220 212 224 220 181 168 194 190 179 189 190 178 156 206 166 159 182 167 157 143 128 115 122 118 113 120 137 135 137 137 139 139 142 140 136
271 271 266 263 263 259 256 255 255 251 247 239 232 230 242 234 244 232 215 235 231 221 221 226 221 223 215 202 191 174 196 220 214 216 219 220 214 213 220 221 218 232 223 182 178 176 185 184 190 182 218 165 157 148 184 163 164 162 163 151 133 140 132 122 132 129 131 135 144 145 141 140 142 146
265 265 270 271 271 268 262 263 262 260 255 249 240 238 241 250 250 239 222 229 235 233 226 219 221 219 213 209 198 191 202 215 214 212 214 217 217 216 219 215 214 221 226 188 178 186 164 182 181 176 186 172 198 163 140 191 173 162 151 153 145 150 151 144 134 128 137 134 138 138 111 100 87 87
262 265 266 275 283 282 283 284 279 271 261 251 239 242 247 249 249 248 240 221 221 228 235 235 229 223 218 210 206 201 204 210 209 211 213 214 213 216 222 226 222 223 216 165 188 189 187 187 172 181 188 194 172 180 168 155 169 148 149 153 152 142 140 147 139 139 139 141 141 115 101 82 77 78
259 266 267 261 263 270 277 277 273 267 255 239 245 246 246 247 246 240 238 229 223 224 227 229 231 230 222 217 211 207 207 206 201 208 214 216 212 212 220 225 229 227 211 188 184 198 193 192 182 198 187 182 184 179 190 167 136 163 157 150 151 154 166 165 139 135 137 130 128 136 120 112 107 107
246 249 255 262 265 268 271 272 275 268 256 246 241 245 248 246 241 236 236 229 193 219 226 226 223 221 220 216 215 207 209 217 213 212 218 217 214 215 221 227 227 225 216 195 186 191 197 199 196 193 197 191 188 196 180 174 162 167 160 149 156 166 164 152 136 143 141 130 129 129 132 132 128 119
242 252 259 263 267 268 267 267 249 244 253 238 233 235 242 238 210 225 234 226 217 218 224 227 230 227 217 211 204 192 186 201 214 211 214 208 214 208 209 214 217 215 212 195 179 183 194 206 205 184 188 190 189 182 205 164 172 164 166 171 138 121 165 150 146 137 132 127 121 116 98 92 98 100
252 258 257 259 258 259 262 262 261 261 261 262 255 246 235 202 211 214 224 223 220 221 224 226 227 231 229 215 191 183 195 223 224 204 206 212 220 208 206 208 217 210 204 192 187 179 194 192 180 179 179 184 199 198 184 175 160 162 170 162 160 169 165 148 136 128 125 120 114 92 82 79 74 67
261 273 282 282 281 277 275 264 255 246 243 240 236 235 222 208 215 216 220 223 221 225 225 227 224 221 217 226 221 209 206 216 218 200 203 208 215 206 201 211 220 217 211 196 178 181 197 207 200 204 205 196 199 194 169 169 173 167 168 167 157 103 132 142 132 127 128 120 101 85 75 76 77 66
276 276 273 272 275 266 265 267 254 245 239 231 223 231 236 212 209 213 211 216 220 219 224 229 226 227 212 214 215 215 218 220 216 201 210 210 211 201 200 212 212 208 216 204 182 181 194 208 206 203 205 205 194 175 170 184 183 170 166 161 156 145 147 140 137 133 129 110 99 93 82 67 52 52
264 253 252 258 267 271 271 274 274 267 260 255 238 227 230 232 224 208 210 217 222 212 213 224 226 225 216 215 209 209 217 216 211 206 206 212 202 205 196 201 208 211 211 202 189 184 149 99 104 86 77 64 47 86 197 174 162 177 169 164 157 152 140 128 121 125 124 129 121 102 87 71 53 47
238 247 248 261 269 277 279 279 278 270 263 263 265 254 241 229 229 229 228 223 217 221 226 224 224 223 223 224 214 212 212 210 204 208 205 211 206 211 207 204 207 201 202 195 186 158 151 145 134 117 103 110 95 81 48 32 183 148 141 132 123 111 119 124 121 117 116 112 110 106 99 89 77 52
239 238 250 266 270 266 268 268 270 260 249 254 252 252 251 247 243 244 244 233 225 223 223 228 228 225 224 225 223 220 216 206 206 206 209 211 213 209 210 209 207 205 199 200 179 158 160 160 155 153 156 160 143 135 154 25 46 176 149 144 138 129 124 121 121 124 116 114 116 120 116 118 105 81
240 237 242 255 257 255 258 260 258 258 252 246 241 234 232 235 234 236 250 254 248 245 235 225 224 220 222 221 223 222 214 205 211 206 209 209 216 219 217 217 209 206 201 196 170 164 168 170 172 162 163 169 171 172 131 330 28 31 120 118 114 117 122 120 119 101 98 107 92 93 118 122 116 94
244 244 248 247 249 249 250 254 255 253 250 248 251 249 237 227 217 220 205 208 222 252 250 233 224 219 232 239 237 230 219 211 209 206 207 206 200 212 215 216 207 196 201 180 170 173 176 175 181 179 168 172 169 147 149 124 55 27 16 124 121 126 119 121 109 106 94 84 95 87 94 103 103 100
243 244 241 243 245 252 259 263 260 257 254 251 246 246 252 251 251 237 226 227 209 201 210 220 228 225 225 232 231 232 228 220 215 212 206 208 211 212 204 204 201 190 176 162 162 173 178 182 185 190 185 174 174 178 155 137 104 104 49 92 126 120 131 116 109 102 110 104 91 86 72 79 87 91
236 237 245 246 257 259 257 255 257 255 258 254 254 249 248 253 235 224 217 229 217 212 217 223 224 216 217 218 223 227 231 228 224 218 211 208 205 204 200 195 197 179 167 161 165 164 178 180 174 174 148 92 78 92 105 98 101 83 67 41 106 145 138 128 123 127 119 123 124 114 116 117 103 83
223 233 239 243 248 248 249 251 251 253 247 250 254 258 248 236 235 227 213 200 195 206 212 218 220 221 222 218 218 222 229 226 224 220 214 209 203 201 198 189 190 179 167 168 161 159 152 136 109 107 108 112 125 121 93 88 74 70 57 61 53 60 79 108 133 140 131 139 123 119 120 119 119 106
250 238 237 235 241 244 239 246 251 246 242 242 251 259 269 247 237 233 220 219 208 209 215 230 239 238 234 226 222 219 225 225 220 216 211 207 205 197 195 196 190 161 157 156 150 121 112 118 122 120 127 131 113 94 101 104 104 84 90 79 67 66 75 77 68 70 108 136 137 124 103 106 110 115
255 259 260 261 261 263 255 249 248 245 238 253 263 263 259 241 232 225 185 190 181 186 209 235 244 245 240 228 218 214 216 216 212 208 203 201 200 194 193 193 160 146 128 113 107 115 121 123 118 121 116 105 112 116 117 119 113 111 106 90 88 88 77 73 83 97 93 56 14 103 145 148 143 150
240 245 248 247 249 247 245 237 235 177 214 241 256 262 259 239 225 206 186 180 142 86 10 344 318 308 294 241 196 182 175 171 161 164 172 171 154 132 114 111 113 114 119 118 116 109 106 91 84 100 96 97 107 107 114 110 105 105 103 103 105 102 97 100 92 81 65 49 47 87 101 136 13 165
235 232 237 240 239 242 234 204 161 205 227 224 247 256 226 202 210 189 168 125 79 39 28 4 360 9 17 58 98 98 103 117 111 105 103 102 114 122 125 122 119 119 119 124 120 116 98 80 74 76 83 87 93 101 105 111 113 110 106 106 106 103 112 119 115 97 66 77 10 100 159 125 111 113